• In Russia
  • List of Countries
  • For 7 days
  • Water Temperature
  • Satellite Maps
  • Weather Map
  • Weather Widgets
  • user-avatar
    Login

    Hourly Weather Muhorshibir

    Today, 16 July, Monday

    Time Temperature Precipitation Wind Pressure Humidity
    00:00 +19°C° 0.1 mm 1 mps 688 mmHg 77%
    01:00 +17°C° 0 mm 0 mps 688 mmHg 79%
    02:00 +18°C° 0 mm 1 mps 688 mmHg 81%
    03:00 +18°C° 0 mm 1 mps 687 mmHg 82%
    04:00 +16°C° 0 mm 1 mps 687 mmHg 83%
    05:00 +19°C° 0 mm 1 mps 688 mmHg 78%
    06:00 +21°C° 0 mm 1 mps 688 mmHg 72%
    07:00 +22°C° 0 mm 1 mps 688 mmHg 68%
    08:00 +23°C° 0.1 mm 1 mps 688 mmHg 63%
    09:00 +25°C° 0.1 mm 1 mps 688 mmHg 59%
    10:00 +26°C° 0.1 mm 1 mps 688 mmHg 55%
    11:00 +27°C° 0.3 mm 1 mps 688 mmHg 52%
    12:00 +28°C° 0.3 mm 1 mps 688 mmHg 49%
    13:00 +29°C° 0.3 mm 1 mps 688 mmHg 46%
    14:00 +28°C° 0.3 mm 1 mps 688 mmHg 48%
    15:00 +28°C° 0.3 mm 1 mps 687 mmHg 49%
    16:00 +27°C° 0.3 mm 1 mps 687 mmHg 51%
    17:00 +26°C° 0.1 mm 1 mps 687 mmHg 55%
    18:00 +25°C° 0.1 mm 1 mps 687 mmHg 60%
    19:00 +24°C° 0.1 mm 1 mps 687 mmHg 64%
    20:00 +22°C° 0.3 mm 1 mps 687 mmHg 70%
    21:00 +21°C° 0.3 mm 1 mps 687 mmHg 75%
    22:00 +17°C° 0.3 mm 0 mps 687 mmHg 81%
    23:00 +19°C° 0.2 mm 1 mps 687 mmHg 83%

    Tomorrow, 17 July, Tuesday

    Time Temperature Precipitation Wind Pressure Humidity
    00:00 +18°C° 0.2 mm 1 mps 688 mmHg 85%
    01:00 +18°C° 0.2 mm 1 mps 688 mmHg 86%
    02:00 +16°C° 0 mm 1 mps 688 mmHg 88%
    03:00 +16°C° 0 mm 1 mps 688 mmHg 90%
    04:00 +16°C° 0 mm 1 mps 688 mmHg 91%
    05:00 +18°C° 0 mm 1 mps 688 mmHg 87%
    06:00 +20°C° 0 mm 1 mps 688 mmHg 82%
    07:00 +20°C° 0 mm 2 mps 689 mmHg 77%
    08:00 +23°C° 0 mm 2 mps 689 mmHg 69%
    09:00 +25°C° 0 mm 2 mps 689 mmHg 60%
    10:00 +27°C° 0 mm 3 mps 689 mmHg 52%
    11:00 +28°C° 0.4 mm 3 mps 689 mmHg 51%
    12:00 +28°C° 0.4 mm 3 mps 688 mmHg 51%
    13:00 +29°C° 0.4 mm 3 mps 688 mmHg 50%
    14:00 +29°C° 0.2 mm 3 mps 688 mmHg 48%
    15:00 +29°C° 0.2 mm 3 mps 688 mmHg 46%
    16:00 +30°C° 0.2 mm 3 mps 688 mmHg 44%
    17:00 +28°C° 0 mm 3 mps 688 mmHg 50%
    18:00 +27°C° 0 mm 2 mps 688 mmHg 55%
    19:00 +25°C° 0 mm 2 mps 687 mmHg 61%
    20:00 +24°C° 0.1 mm 2 mps 687 mmHg 67%
    21:00 +21°C° 0.1 mm 2 mps 687 mmHg 72%
    22:00 +19°C° 0.1 mm 2 mps 687 mmHg 78%
    23:00 +19°C° 0.2 mm 1 mps 687 mmHg 81%

    Day after tomorrow, 18 July, Wednesday

    Time Temperature Precipitation Wind Pressure Humidity
    00:00 +18°C° 0.2 mm 1 mps 687 mmHg 84%
    01:00 +18°C° 0.2 mm 1 mps 687 mmHg 86%
    02:00 +16°C° 0.1 mm 1 mps 687 mmHg 87%
    03:00 +16°C° 0.1 mm 1 mps 687 mmHg 88%
    04:00 +16°C° 0.1 mm 1 mps 687 mmHg 90%
    05:00 +18°C° 0 mm 1 mps 687 mmHg 83%
    06:00 +20°C° 0 mm 1 mps 688 mmHg 77%
    07:00 +21°C° 0 mm 2 mps 688 mmHg 71%
    08:00 +24°C° 0 mm 2 mps 688 mmHg 64%
    09:00 +26°C° 0 mm 2 mps 688 mmHg 57%
    10:00 +28°C° 0 mm 2 mps 689 mmHg 50%
    11:00 +29°C° 0.1 mm 2 mps 688 mmHg 47%
    12:00 +30°C° 0.1 mm 2 mps 688 mmHg 44%
    13:00 +31°C° 0.1 mm 2 mps 688 mmHg 41%
    14:00 +30°C° 0.1 mm 2 mps 688 mmHg 44%
    15:00 +29°C° 0.1 mm 2 mps 688 mmHg 48%
    16:00 +29°C° 0.1 mm 2 mps 687 mmHg 51%
    17:00 +28°C° 0 mm 2 mps 687 mmHg 55%
    18:00 +27°C° 0 mm 1 mps 687 mmHg 59%
    19:00 +26°C° 0 mm 1 mps 687 mmHg 63%
    20:00 +24°C° 0.5 mm 1 mps 688 mmHg 70%
    21:00 +22°C° 0.5 mm 1 mps 688 mmHg 77%
    22:00 +21°C° 0.5 mm 1 mps 688 mmHg 84%
    23:00 +20°C° 0.8 mm 1 mps 688 mmHg 87%

    19 July, Thursday

    Time Temperature Precipitation Wind Pressure Humidity
    00:00 +20°C° 0.8 mm 1 mps 688 mmHg 89%
    01:00 +19°C° 0.8 mm 1 mps 688 mmHg 91%
    02:00 +19°C° 0.3 mm 1 mps 688 mmHg 92%
    03:00 +19°C° 0.3 mm 1 mps 688 mmHg 93%
    04:00 +19°C° 0.3 mm 1 mps 688 mmHg 94%
    05:00 +20°C° 0 mm 1 mps 688 mmHg 92%
    06:00 +21°C° 0 mm 1 mps 688 mmHg 89%
    07:00 +22°C° 0 mm 1 mps 689 mmHg 87%
    08:00 +24°C° 0.3 mm 1 mps 689 mmHg 80%
    09:00 +25°C° 0.3 mm 2 mps 689 mmHg 74%
    10:00 +27°C° 0.3 mm 2 mps 689 mmHg 67%
    11:00 +29°C° 0.2 mm 2 mps 689 mmHg 60%
    12:00 +30°C° 0.2 mm 2 mps 688 mmHg 53%
    13:00 +32°C° 0.2 mm 1 mps 688 mmHg 45%
    14:00 +32°C° 0 mm 2 mps 688 mmHg 44%
    15:00 +32°C° 0 mm 2 mps 688 mmHg 43%
    16:00 +32°C° 0 mm 2 mps 687 mmHg 41%
    17:00 +31°C° 0 mm 2 mps 687 mmHg 48%
    18:00 +29°C° 0 mm 3 mps 687 mmHg 54%
    19:00 +28°C° 0 mm 3 mps 686 mmHg 61%
    20:00 +26°C° 0.2 mm 3 mps 686 mmHg 67%
    21:00 +24°C° 0.2 mm 3 mps 686 mmHg 73%
    22:00 +23°C° 0.2 mm 2 mps 685 mmHg 79%
    23:00 +21°C° 0.5 mm 2 mps 685 mmHg 82%

    20 July, Friday

    Time Temperature Precipitation Wind Pressure Humidity
    00:00 +21°C° 0.5 mm 2 mps 685 mmHg 85%
    01:00 +20°C° 0.5 mm 2 mps 684 mmHg 88%
    02:00 +20°C° 1.4 mm 2 mps 684 mmHg 90%
    03:00 +20°C° 1.4 mm 2 mps 684 mmHg 93%
    04:00 +20°C° 1.4 mm 1 mps 683 mmHg 96%
    05:00 +21°C° 0.7 mm 1 mps 684 mmHg 93%
    06:00 +21°C° 0.7 mm 2 mps 684 mmHg 90%
    07:00 +23°C° 0.7 mm 2 mps 684 mmHg 87%
    08:00 +24°C° 0.1 mm 2 mps 684 mmHg 82%
    09:00 +25°C° 0.1 mm 3 mps 684 mmHg 76%
    10:00 +26°C° 0.1 mm 3 mps 685 mmHg 71%
    11:00 +27°C° 0.1 mm 3 mps 685 mmHg 66%
    12:00 +28°C° 0.1 mm 4 mps 685 mmHg 60%
    13:00 +29°C° 0.1 mm 4 mps 685 mmHg 55%
    14:00 +29°C° 0 mm 4 mps 685 mmHg 55%
    15:00 +28°C° 0 mm 4 mps 685 mmHg 56%
    16:00 +28°C° 0 mm 4 mps 685 mmHg 57%
    17:00 +26°C° 0.5 mm 3 mps 685 mmHg 65%
    18:00 +24°C° 0.5 mm 3 mps 685 mmHg 72%
    19:00 +21°C° 0.5 mm 3 mps 685 mmHg 80%
    20:00 +19°C° 0.7 mm 2 mps 685 mmHg 84%
    21:00 +17°C° 0.7 mm 2 mps 685 mmHg 88%
    22:00 +16°C° 0.7 mm 2 mps 685 mmHg 92%
    23:00 +16°C° 0.9 mm 1 mps 685 mmHg 92%

    21 July, Saturday

    Time Temperature Precipitation Wind Pressure Humidity
    00:00 +15°C° 0.9 mm 1 mps 685 mmHg 92%
    01:00 +15°C° 0.9 mm 1 mps 684 mmHg 93%
    02:00 +14°C° 0.3 mm 1 mps 684 mmHg 93%
    03:00 +14°C° 0.3 mm 1 mps 684 mmHg 94%
    04:00 +13°C° 0.3 mm 1 mps 684 mmHg 94%
    05:00 +14°C° 0 mm 1 mps 685 mmHg 90%
    06:00 +15°C° 0 mm 1 mps 685 mmHg 85%
    07:00 +16°C° 0 mm 2 mps 685 mmHg 80%
    08:00 +18°C° 0 mm 2 mps 686 mmHg 72%
    09:00 +19°C° 0 mm 3 mps 686 mmHg 64%
    10:00 +21°C° 0 mm 4 mps 686 mmHg 56%
    11:00 +20°C° 0.1 mm 4 mps 686 mmHg 59%
    12:00 +20°C° 0.1 mm 5 mps 687 mmHg 62%
    13:00 +20°C° 0.1 mm 6 mps 687 mmHg 66%
    14:00 +19°C° 0.1 mm 6 mps 687 mmHg 66%
    15:00 +19°C° 0.1 mm 5 mps 687 mmHg 66%
    16:00 +19°C° 0.1 mm 5 mps 688 mmHg 67%
    17:00 +17°C° 0.1 mm 5 mps 688 mmHg 72%
    18:00 +17°C° 0.1 mm 4 mps 688 mmHg 77%
    19:00 +16°C° 0.1 mm 3 mps 689 mmHg 82%
    20:00 +14°C° 0.1 mm 3 mps 689 mmHg 84%
    21:00 +14°C° 0.1 mm 3 mps 690 mmHg 87%
    22:00 +13°C° 0.1 mm 3 mps 690 mmHg 89%
    23:00 +14°C° 0 mm 2 mps 690 mmHg 90%
    Show more